Hourly Data Report for July 18, 2021

WIARTON A
ONTARIO
Current Station Operator: NAVCAN

44°44'39.000" N
81°06'31.000" W
221.90 m
6119499
71633
YVV

Download Data

Hourly Data (July 2021)
Hourly Data Report for July 18, 2021
TIME
LST
Temp Definition
°C
Dew Point Definition
°C
Rel Hum Definition
%
Precip. Amount Definition
mm

Wind Dir Definition
10's deg

Wind Spd Definition
km/h
Visibility Definition
km
Stn Press Definition
kPa
Hmdx Definition


Wind Chill Definition


Weather Definition


00:00 16.2 14.8 92   21 5 24.1 99.37     LegendNANA
01:00 15.2 14.7 97   22 4 16.1 99.37     Mostly Cloudy
02:00 15.5 14.9 96   22 5 19.3 99.35     LegendNANA
03:00 13.7 13.5 99   22 3 19.3 99.37     LegendNANA
04:00 12.9 12.8 99   14 5 16.1 99.39     Mainly Clear
05:00 13.2 13.1 100   14 4 9.7 99.43     Fog
06:00 13.8 13.8 100   12 6 9.7 99.48     Fog
07:00 16.8 16.6 99   21 4 12.9 99.49     Mostly Cloudy
08:00 20.4 16.3 77   36 2 12.9 99.49 25   LegendNANA
09:00 22.2 17.1 72   31 5 12.9 99.51 28   LegendNANA
10:00 23.7 18.3 71   26 7 12.9 99.51 30   Mainly Clear
11:00 22.8 19.1 79   26 8 12.9 99.51 30   LegendNANA
12:00 24.0 19.4 75   29 6 12.9 99.47 31   LegendNANA
13:00 25.1 17.9 64   26 12 19.3 99.43 31   Cloudy
14:00 25.1 17.1 60   25 13 19.3 99.41 30   LegendNANA
15:00 24.1 17.5 66   26 9 19.3 99.40 30   LegendNANA
16:00 23.1 17.6 71   26 8 19.3 99.37 29   Cloudy
17:00 22.5 16.7 69   27 12 19.3 99.36 28   LegendNANA
18:00 21.7 17.4 76   27 10 9.7 99.36 27   Haze
19:00 20.6 17.1 80   24 8 9.7 99.32 26   Haze
20:00 19.4 17.1 86   25 6 9.7 99.34     Haze
21:00 18.5 16.9 90   20 9 9.7 99.35     Haze
22:00 17.8 16.8 94   20 7 9.7 99.36     Haze
23:00 17.7 16.8 95   20 8 12.9 99.34     LegendNANA

Notes on Data Quality.

Legend

  • E = Estimated
  • M = Missing
  • NA = Not Available*
  • [empty] = Indicates an unobserved value
Date modified: